[[{"header":{"parameterUnit":"m.s-1","parameterCategory":1,"la1":30.2991,"la2":30.254,"lo1":-89.0895,"lo2":-89.0444,"dy":0.0017,"dx":0.0017,"nx":28,"ny":28,"refTime":"2025-11-21T03:00:00:Z","depth":0,"parameterNumber":2,"parameterNumberName":"U-component_of_WINDS"},"data":[0,0,0,0,0,0,0,0,0,0,0,0,0,0,0,0,0,0,0,0,0,0,0,0,0,0,0,0,0,0,0,0,0,0,0,0,0,0,0,0,0,0,0,0,0,0,0,0,0,0,0,0,0,0,0,0,0,0,1.5873,1.5874,0,1.5947,1.5948,1.5949,1.5962,1.5961,1.596,1.596,1.6033,1.6035,1.6038,0,0,0,0,0,0,0,0,0,0,0,0,0,1.574,1.5742,1.5873,1.5874,1.5875,1.5947,1.5948,1.5949,1.5962,1.5961,1.596,1.596,1.6032,1.6035,1.6038,0,0,0,0,0,0,0,0,0,0,0,0,0,1.5804,1.5743,1.5873,1.589,1.5892,1.5947,1.5948,1.5949,1.5962,1.5961,1.596,1.5959,1.6031,1.6035,1.6038,1.608,0,0,1.605,1.6052,0,0,0,0,0,0,0,0,1.58,1.5809,1.5886,1.5889,1.5891,1.5944,1.5928,1.5993,1.5962,1.5935,1.596,1.5959,1.6004,1.601,1.6026,1.6083,1.6087,1.605,1.6053,1.6054,1.6055,0,0,0,0,0,0,0,1.5796,1.5806,1.5902,1.5888,1.5891,1.5893,1.5901,1.594,1.5974,1.5938,1.5939,1.5948,1.6005,1.6022,1.6027,1.6088,1.605,1.6054,1.6056,1.6057,1.6183,1.6184,0,0,0,0,0,0,1.5789,1.5802,1.59,1.5904,1.5843,1.5896,1.5905,1.5928,1.5973,1.5979,1.5948,1.5948,1.6016,1.6023,1.603,1.6082,1.6054,1.6058,1.606,1.6182,1.6183,1.6184,0,0,0,0,0,0,1.5786,1.5797,1.5897,1.5853,1.5866,1.5899,1.5925,1.593,1.5947,1.5981,1.5987,1.596,1.6016,1.6025,1.6068,1.6085,1.6059,1.6063,1.6181,1.6182,1.6184,1.6186,0,0,0,0,0,0,1.5782,1.5796,1.5813,1.5854,1.5869,1.5934,1.5926,1.5932,1.5954,1.5954,1.5994,1.5999,1.6016,1.6062,1.6071,1.6089,1.6066,1.6179,1.6181,1.6183,1.6184,1.6187,1.619,0,0,0,0,0,1.5777,1.581,1.5814,1.5825,1.589,1.5935,1.5943,1.5962,1.5955,1.5972,1.5994,1.5998,1.6081,1.6066,1.6077,1.6096,1.6178,1.6181,1.6183,1.6183,1.6187,1.619,0,0,0,0,0,0,1.5769,1.5816,1.582,1.5868,1.5897,1.5937,1.5959,1.5965,1.5997,1.5996,1.6017,1.6026,1.6068,1.6086,1.6069,1.6139,1.6129,1.6134,1.6125,1.6129,1.6132,1.6127,1.6069,0,0,0,0,0,1.5773,1.5806,1.5845,1.5882,1.5897,1.5925,1.5945,1.5958,1.5989,1.6001,1.6026,1.6056,1.6089,1.611,1.6142,1.6187,1.6196,1.6205,1.6208,1.621,1.6214,1.6239,1.6244,1.6192,1.6192,1.6192,0,0,1.5781,1.5811,1.583,1.5882,1.5906,1.5939,1.5936,1.5971,1.5996,1.6006,1.6049,1.6068,1.6102,1.6147,1.6167,1.6163,1.623,1.6213,1.6215,1.6218,1.6242,1.6247,1.6252,1.6194,1.6194,1.6194,0,0,1.5813,1.5839,1.5873,1.5898,1.5936,1.5954,1.5962,1.6001,1.6015,1.6058,1.6067,1.6096,1.6152,1.6176,1.6196,1.6236,1.6241,1.6246,1.626,1.6285,1.6289,1.6293,1.6307,1.6312,1.625,1.625,1.625,0,1.5818,1.587,1.589,1.5925,1.5947,1.5959,1.5994,1.6017,1.6062,1.6077,1.6072,1.6143,1.6167,1.6217,1.6227,1.6242,1.6252,1.6242,1.6287,1.6291,1.6294,1.6309,1.6314,1.625,1.625,1.625,1.625,0,1.5874,1.5909,1.5933,1.5978,1.6002,1.6037,1.6062,1.6084,1.6094,1.6113,1.6156,1.6185,1.6223,1.6236,1.6246,1.6288,1.6284,1.6283,1.6273,1.6299,1.6313,1.6319,1.6251,1.6251,1.625,1.625,0,0,1.5903,1.5959,1.5968,1.5988,1.6031,1.6058,1.6092,1.6131,1.615,1.618,1.621,1.6257,1.6256,1.6278,1.6291,1.6312,1.6343,1.6308,1.6309,1.6314,1.6391,1.6392,1.6398,1.6346,1.6347,1.6348,1.6388,0,1.594,1.6004,1.6024,1.6077,1.611,1.6122,1.6152,1.6181,1.6199,1.6229,1.6248,1.6282,1.6278,1.6291,1.6313,1.6335,1.6359,1.6332,1.6373,1.6375,1.6365,1.6406,1.6407,1.6443,1.6394,1.6395,1.6395,0,1.5992,1.6026,1.6082,1.6121,1.6135,1.6162,1.6199,1.6228,1.626,1.6272,1.6297,1.6307,1.6343,1.6331,1.6381,1.6363,1.638,1.6394,1.6395,1.64,1.6387,1.6412,1.6456,1.6461,1.6404,1.6403,1.6403,0,1.6008,1.6067,1.6109,1.6126,1.6172,1.619,1.621,1.6242,1.6264,1.6295,1.631,1.6345,1.6364,1.639,1.641,1.6399,1.6458,1.6448,1.6468,1.6468,1.648,1.6479,1.6528,1.6491,1.6491,1.6491,1.6491,0,1.6048,1.6083,1.6117,1.6142,1.6181,1.6202,1.624,1.626,1.6288,1.6317,1.6329,1.6356,1.6379,1.6409,1.6424,1.6463,1.6472,1.6482,1.6485,1.6481,1.648,1.6493,1.6492,1.6492,1.6492,1.6492,1.6491,0,1.6073,1.6097,1.6144,1.6183,1.6194,1.6221,1.6254,1.6279,1.6298,1.6335,1.6344,1.6373,1.6409,1.6431,1.6476,1.6486,1.6529,1.6532,1.6519,1.652,1.654,1.6538,1.6599,1.6608,1.6565,1.6565,1.6566,0,1.6097,1.6124,1.6167,1.6188,1.6208,1.6241,1.6264,1.6286,1.6309,1.6348,1.6368,1.6405,1.6435,1.6492,1.6516,1.6551,1.6554,1.6573,1.6559,1.6554,1.6555,1.6553,1.6556,1.6576,1.6576,1.6576,1.6577,0,1.6137,1.6148,1.6181,1.6218,1.6245,1.6275,1.6305,1.6321,1.6347,1.6372,1.641,1.6434,1.648,1.6516,1.6553,1.6572,1.6579,1.6581,1.6587,1.6583,1.6575,1.658,1.6525,1.6579,1.6579,1.6579,1.6579,1.6579,1.6162,1.6187,1.6221,1.6258,1.6282,1.631,1.6336,1.6358,1.639,1.643,1.6441,1.648,1.6511,1.6561,1.6581,1.6611,1.6609,1.6618,1.6621,1.6623,1.6623,1.657,1.6618,1.6618,1.6618,1.6618,1.6618,0,1.6203,1.6226,1.6259,1.6301,1.633,1.6334,1.6368,1.6391,1.6425,1.6455,1.6485,1.6527,1.6563,1.659,1.6626,1.6645,1.6649,1.6654,1.6653,1.6657,1.6624,1.6615,1.665,1.665,1.665,1.665,1.665,1.665,1.6228,1.627,1.6285,1.6339,1.6362,1.6401,1.6419,1.6445,1.6468,1.6516,1.6546,1.6564,1.6592,1.663,1.6663,1.667,1.6682,1.6687,1.6694,1.6663,1.6659,1.6656,1.6648,1.6689,1.6689,1.6725,1.6726,1.6726]},{"header":{"parameterUnit":"m.s-1","parameterCategory":1,"la1":30.2991,"la2":30.254,"lo1":-89.0895,"lo2":-89.0444,"dy":0.0017,"dx":0.0017,"nx":28,"ny":28,"refTime":"2025-11-21T03:00:00:Z","depth":0,"parameterNumber":3,"parameterNumberName":"V-component_of_WINDS"},"data":[0,0,0,0,0,0,0,0,0,0,0,0,0,0,0,0,0,0,0,0,0,0,0,0,0,0,0,0,0,0,0,0,0,0,0,0,0,0,0,0,0,0,0,0,0,0,0,0,0,0,0,0,0,0,0,0,0,0,2.8483,2.8483,0,2.8456,2.8456,2.8455,2.842,2.8419,2.8419,2.8418,2.8392,2.8391,2.8391,0,0,0,0,0,0,0,0,0,0,0,0,0,2.8504,2.8504,2.8483,2.8483,2.8482,2.8456,2.8456,2.8455,2.842,2.8419,2.8419,2.8418,2.8392,2.8391,2.8391,0,0,0,0,0,0,0,0,0,0,0,0,0,2.8488,2.8504,2.8483,2.8462,2.8459,2.8456,2.8456,2.8455,2.842,2.8419,2.8419,2.8418,2.8392,2.8391,2.8391,2.8407,0,0,2.839,2.839,0,0,0,0,0,0,0,0,2.8489,2.8487,2.8465,2.8463,2.8461,2.844,2.8453,2.8439,2.8421,2.8435,2.8418,2.8417,2.8409,2.8407,2.8404,2.8406,2.8405,2.839,2.839,2.839,2.839,0,0,0,0,0,0,0,2.849,2.8488,2.8472,2.8465,2.8462,2.8453,2.845,2.845,2.8427,2.8434,2.8431,2.8428,2.8407,2.8404,2.8403,2.8404,2.839,2.839,2.839,2.839,2.8417,2.8418,0,0,0,0,0,0,2.8494,2.8489,2.8473,2.8471,2.8473,2.8454,2.845,2.8448,2.8427,2.8423,2.8429,2.8427,2.8405,2.8403,2.8402,2.8419,2.839,2.839,2.839,2.8416,2.8417,2.8418,0,0,0,0,0,0,2.8495,2.8493,2.8474,2.848,2.8476,2.8454,2.8452,2.8448,2.8445,2.8423,2.8419,2.843,2.8404,2.8402,2.8406,2.8417,2.839,2.839,2.8415,2.8417,2.8418,2.8453,0,0,0,0,0,0,2.8495,2.8493,2.8499,2.848,2.8476,2.8479,2.8453,2.8448,2.8444,2.8441,2.8423,2.842,2.8403,2.8406,2.8406,2.8417,2.8389,2.8414,2.8416,2.8417,2.8451,2.8456,2.846,0,0,0,0,0,2.8496,2.8511,2.85,2.8498,2.8483,2.848,2.8477,2.8458,2.8445,2.8451,2.8437,2.842,2.8416,2.8407,2.8406,2.8417,2.8413,2.8415,2.8417,2.8449,2.8455,2.8459,0,0,0,0,0,0,2.8533,2.8508,2.8496,2.8504,2.8494,2.8474,2.848,2.8465,2.8459,2.8456,2.8432,2.8429,2.8435,2.8426,2.8417,2.8431,2.8412,2.8414,2.8437,2.8442,2.8446,2.8448,2.8389,0,0,0,0,0,2.8542,2.8541,2.8519,2.8528,2.8524,2.8503,2.8501,2.8487,2.8475,2.8471,2.8458,2.8448,2.8444,2.8442,2.8438,2.8449,2.8445,2.8456,2.846,2.8464,2.8466,2.8471,2.8476,2.8425,2.8425,2.8425,0,0,2.856,2.8546,2.8547,2.8535,2.8526,2.8526,2.85,2.8501,2.85,2.8471,2.8474,2.8464,2.8451,2.8458,2.8461,2.8451,2.8479,2.8466,2.847,2.847,2.8474,2.8478,2.8483,2.8426,2.8426,2.8426,0,0,2.8594,2.8583,2.859,2.8581,2.8567,2.8553,2.8554,2.8536,2.8528,2.853,2.8508,2.8507,2.8501,2.8493,2.8488,2.8517,2.8501,2.8516,2.8539,2.8544,2.8548,2.8552,2.8562,2.8567,2.8518,2.8518,2.8518,0,2.8619,2.8617,2.8595,2.8597,2.8593,2.8566,2.8572,2.8565,2.855,2.8548,2.8536,2.8528,2.8518,2.8523,2.853,2.8526,2.8528,2.8519,2.8549,2.8553,2.8556,2.8566,2.857,2.852,2.852,2.852,2.852,0,2.8649,2.8648,2.8655,2.8641,2.8637,2.8641,2.862,2.8618,2.8604,2.8591,2.8593,2.8579,2.8571,2.8571,2.8558,2.8574,2.8569,2.8554,2.8535,2.8563,2.8572,2.8575,2.8523,2.8522,2.8522,2.8521,0,0,2.8706,2.8679,2.8682,2.8675,2.8657,2.8656,2.8659,2.865,2.865,2.864,2.8642,2.8637,2.8623,2.8617,2.8602,2.8607,2.8631,2.8591,2.859,2.8599,2.8648,2.866,2.8664,2.862,2.862,2.8621,2.8649,0,2.8737,2.874,2.872,2.8728,2.8727,2.8701,2.8703,2.8693,2.868,2.8677,2.8663,2.866,2.8642,2.8638,2.8641,2.8627,2.864,2.8625,2.8621,2.8621,2.8626,2.8669,2.8681,2.8709,2.8652,2.8653,2.8653,0,2.8773,2.8765,2.8774,2.8755,2.8753,2.8756,2.8746,2.8744,2.8731,2.8721,2.8714,2.8697,2.8698,2.8679,2.868,2.867,2.8667,2.866,2.866,2.866,2.864,2.867,2.8717,2.8722,2.8659,2.8658,2.8658,0,2.8815,2.8806,2.8809,2.8804,2.8782,2.8784,2.8775,2.8761,2.8757,2.8749,2.8746,2.8738,2.8734,2.8728,2.8708,2.8696,2.8712,2.8691,2.8704,2.8705,2.8709,2.871,2.8757,2.8707,2.8707,2.8706,2.8706,0,2.8851,2.8858,2.8828,2.883,2.8836,2.8813,2.8819,2.8807,2.8795,2.8795,2.8771,2.8771,2.8746,2.8743,2.8727,2.8731,2.8729,2.8721,2.8717,2.8724,2.8725,2.8722,2.872,2.8708,2.8707,2.8707,2.8707,0,2.8899,2.8879,2.8882,2.886,2.8854,2.886,2.8841,2.8843,2.8828,2.8828,2.8826,2.8804,2.8799,2.8779,2.877,2.8759,2.8768,2.8759,2.8772,2.877,2.8784,2.8783,2.8832,2.8838,2.8783,2.8784,2.8784,0,2.8924,2.8928,2.8907,2.8905,2.8897,2.8894,2.8889,2.8866,2.8862,2.8847,2.885,2.8843,2.8837,2.8831,2.8814,2.8806,2.8798,2.8815,2.8797,2.8803,2.8798,2.8799,2.8799,2.882,2.8821,2.8821,2.8822,0,2.8971,2.8961,2.8956,2.8947,2.8942,2.8934,2.8924,2.8924,2.8898,2.8895,2.889,2.8885,2.8875,2.8868,2.8858,2.8848,2.8831,2.8827,2.883,2.8837,2.8845,2.8841,2.8784,2.8827,2.8826,2.8826,2.8826,2.8825,2.9009,2.9011,2.8996,2.8991,2.8981,2.8972,2.8972,2.8958,2.8953,2.8943,2.8929,2.8925,2.8911,2.8895,2.8887,2.8883,2.8874,2.8878,2.8879,2.888,2.8883,2.8844,2.8881,2.8881,2.8881,2.8881,2.8881,0,2.9055,2.9044,2.9039,2.9026,2.9022,2.9005,2.8993,2.8991,2.8988,2.8976,2.897,2.8964,2.8957,2.8939,2.893,2.8931,2.8923,2.893,2.893,2.8928,2.8892,2.8891,2.8937,2.8937,2.8937,2.8937,2.8937,2.8937,2.9079,2.9082,2.9069,2.9067,2.9056,2.9052,2.9047,2.9038,2.9029,2.9023,2.9017,2.9005,2.899,2.8981,2.8974,2.8968,2.8967,2.8976,2.8969,2.8936,2.8931,2.8926,2.8924,2.8976,2.8976,2.9004,2.9005,2.9005]}]]